• In Austria
  • List of Countries
  • For 7 days
  • Water Temperature
  • Satellite Maps
  • Weather Map
  • News
  • Weather Widgets
  • user-avatar
    Login

    Hourly Weather La Massana

    Today, 18 December, Monday

    Time Temperature Precipitation Wind Pressure Humidity
    00:00 -6°C° 0 mm 2 mps 615 mmHg 80%
    01:00 -6°C° 0 mm 2 mps 614 mmHg 81%
    02:00 -7°C° 0 mm 3 mps 614 mmHg 81%
    03:00 -8°C° 0 mm 3 mps 614 mmHg 82%
    04:00 -7°C° 0 mm 3 mps 614 mmHg 81%
    05:00 -7°C° 0 mm 3 mps 614 mmHg 81%
    06:00 -7°C° 0 mm 3 mps 614 mmHg 81%
    07:00 -6°C° 0 mm 3 mps 614 mmHg 78%
    08:00 -4°C° 0 mm 2 mps 614 mmHg 76%
    09:00 -3°C° 0 mm 2 mps 615 mmHg 73%
    10:00 -2°C° 0.2 mm 2 mps 614 mmHg 73%
    11:00 -1°C° 0.2 mm 3 mps 614 mmHg 73%
    12:00 -1°C° 0 mm 3 mps 614 mmHg 74%
    13:00 -1°C° 1.1 mm 3 mps 613 mmHg 77%
    14:00 -1°C° 1.1 mm 3 mps 612 mmHg 80%
    15:00 -2°C° 1.1 mm 3 mps 612 mmHg 83%
    16:00 -2°C° 1.3 mm 3 mps 611 mmHg 86%
    17:00 -2°C° 1.3 mm 3 mps 611 mmHg 89%
    18:00 -3°C° 1.3 mm 4 mps 611 mmHg 91%
    19:00 -3°C° 0.5 mm 4 mps 611 mmHg 91%
    20:00 -4°C° 0.5 mm 4 mps 611 mmHg 91%
    21:00 -4°C° 0.5 mm 4 mps 612 mmHg 91%
    22:00 -5°C° 0.1 mm 3 mps 612 mmHg 91%
    23:00 -6°C° 0.1 mm 3 mps 612 mmHg 91%

    Tomorrow, 19 December, Tuesday

    Time Temperature Precipitation Wind Pressure Humidity
    00:00 -7°C° 0.1 mm 3 mps 612 mmHg 91%
    01:00 -7°C° 0 mm 3 mps 612 mmHg 91%
    02:00 -8°C° 0 mm 3 mps 612 mmHg 90%
    03:00 -8°C° 0 mm 3 mps 612 mmHg 90%
    04:00 -9°C° 0 mm 3 mps 613 mmHg 88%
    05:00 -9°C° 0 mm 3 mps 613 mmHg 86%
    06:00 -10°C° 0 mm 3 mps 613 mmHg 85%
    07:00 -9°C° 0 mm 3 mps 614 mmHg 80%
    08:00 -8°C° 0 mm 3 mps 615 mmHg 76%
    09:00 -6°C° 0 mm 2 mps 616 mmHg 72%
    10:00 -4°C° 0 mm 2 mps 616 mmHg 69%
    11:00 -3°C° 0 mm 2 mps 617 mmHg 66%
    12:00 -1°C° 0 mm 2 mps 618 mmHg 63%
    13:00 -2°C° 0 mm 3 mps 617 mmHg 66%
    14:00 -2°C° 0 mm 3 mps 617 mmHg 69%
    15:00 -2°C° 0 mm 3 mps 617 mmHg 71%
    16:00 -5°C° 0 mm 3 mps 616 mmHg 77%
    17:00 -6°C° 0 mm 2 mps 616 mmHg 82%
    18:00 -7°C° 0 mm 2 mps 616 mmHg 87%
    19:00 -7°C° 0 mm 2 mps 616 mmHg 87%
    20:00 -8°C° 0 mm 2 mps 616 mmHg 86%
    21:00 -8°C° 0 mm 2 mps 616 mmHg 86%
    22:00 -8°C° 0 mm 2 mps 616 mmHg 84%
    23:00 -7°C° 0 mm 2 mps 616 mmHg 83%

    Day after tomorrow, 20 December, Wednesday

    Time Temperature Precipitation Wind Pressure Humidity
    00:00 -7°C° 0 mm 2 mps 616 mmHg 81%
    01:00 -7°C° 0 mm 2 mps 616 mmHg 80%
    02:00 -7°C° 0 mm 2 mps 616 mmHg 79%
    03:00 -7°C° 0 mm 2 mps 616 mmHg 79%
    04:00 -6°C° 0 mm 2 mps 616 mmHg 80%
    05:00 -6°C° 0 mm 2 mps 616 mmHg 81%
    06:00 -7°C° 0 mm 3 mps 616 mmHg 82%
    07:00 -6°C° 0 mm 3 mps 616 mmHg 80%
    08:00 -5°C° 0 mm 3 mps 617 mmHg 79%
    09:00 -4°C° 0 mm 3 mps 617 mmHg 78%
    10:00 -2°C° 0 mm 3 mps 618 mmHg 76%
    11:00 -1°C° 0 mm 3 mps 618 mmHg 74%
    12:00 0°C° 0 mm 3 mps 618 mmHg 72%
    13:00 0°C° 0 mm 3 mps 618 mmHg 73%
    14:00 -1°C° 0 mm 3 mps 617 mmHg 74%
    15:00 -1°C° 0 mm 3 mps 617 mmHg 74%
    16:00 -2°C° 0 mm 3 mps 617 mmHg 79%
    17:00 -4°C° 0 mm 3 mps 617 mmHg 83%
    18:00 -5°C° 0 mm 3 mps 617 mmHg 87%
    19:00 -5°C° 0 mm 3 mps 617 mmHg 87%
    20:00 -4°C° 0 mm 2 mps 617 mmHg 86%
    21:00 -4°C° 0 mm 2 mps 618 mmHg 86%
    22:00 -4°C° 0 mm 2 mps 618 mmHg 85%
    23:00 -4°C° 0 mm 2 mps 618 mmHg 85%

    21 December, Thursday

    Time Temperature Precipitation Wind Pressure Humidity
    00:00 -4°C° 0 mm 2 mps 618 mmHg 84%
    01:00 -4°C° 0 mm 2 mps 618 mmHg 85%
    02:00 -4°C° 0 mm 2 mps 618 mmHg 85%
    03:00 -4°C° 0 mm 2 mps 618 mmHg 85%
    04:00 -4°C° 0 mm 2 mps 618 mmHg 86%
    05:00 -4°C° 0 mm 2 mps 618 mmHg 86%
    06:00 -4°C° 0 mm 2 mps 618 mmHg 86%
    07:00 -4°C° 0 mm 2 mps 619 mmHg 84%
    08:00 -3°C° 0 mm 2 mps 619 mmHg 81%
    09:00 -2°C° 0 mm 2 mps 620 mmHg 79%
    10:00 -1°C° 0 mm 2 mps 620 mmHg 77%
    11:00 +1°C° 0 mm 2 mps 621 mmHg 75%
    12:00 +3°C° 0 mm 2 mps 621 mmHg 74%
    13:00 +2°C° 0 mm 2 mps 621 mmHg 75%
    14:00 +2°C° 0 mm 2 mps 621 mmHg 76%
    15:00 +2°C° 0 mm 2 mps 620 mmHg 78%
    16:00 -1°C° 0 mm 2 mps 620 mmHg 81%
    17:00 -2°C° 0 mm 2 mps 620 mmHg 84%
    18:00 -4°C° 0 mm 2 mps 619 mmHg 87%
    19:00 -4°C° 0 mm 2 mps 619 mmHg 86%
    20:00 -4°C° 0 mm 2 mps 619 mmHg 84%
    21:00 -4°C° 0 mm 2 mps 620 mmHg 83%
    22:00 -4°C° 0 mm 2 mps 620 mmHg 82%
    23:00 -4°C° 0 mm 2 mps 619 mmHg 81%

    22 December, Friday

    Time Temperature Precipitation Wind Pressure Humidity
    00:00 -4°C° 0 mm 2 mps 619 mmHg 81%
    01:00 -4°C° 0 mm 2 mps 619 mmHg 80%
    02:00 -5°C° 0 mm 3 mps 619 mmHg 80%
    03:00 -5°C° 0 mm 3 mps 618 mmHg 79%
    04:00 -5°C° 0 mm 3 mps 618 mmHg 79%
    05:00 -5°C° 0 mm 3 mps 618 mmHg 79%
    06:00 -5°C° 0 mm 3 mps 618 mmHg 79%
    07:00 -4°C° 0 mm 3 mps 619 mmHg 78%
    08:00 -4°C° 0 mm 3 mps 619 mmHg 77%
    09:00 -2°C° 0 mm 3 mps 619 mmHg 76%
    10:00 -1°C° 0 mm 3 mps 620 mmHg 75%
    11:00 0°C° 0 mm 3 mps 620 mmHg 74%
    12:00 +1°C° 0 mm 3 mps 620 mmHg 73%
    13:00 +1°C° 0 mm 3 mps 619 mmHg 75%
    14:00 0°C° 0 mm 3 mps 619 mmHg 76%
    15:00 0°C° 0 mm 3 mps 618 mmHg 78%
    16:00 -1°C° 0 mm 3 mps 618 mmHg 80%
    17:00 -2°C° 0 mm 3 mps 618 mmHg 82%
    18:00 -4°C° 0 mm 3 mps 618 mmHg 84%
    19:00 -4°C° 0 mm 3 mps 618 mmHg 84%
    20:00 -4°C° 0 mm 3 mps 618 mmHg 84%
    21:00 -4°C° 0 mm 3 mps 618 mmHg 84%
    22:00 -5°C° 0 mm 3 mps 617 mmHg 84%
    23:00 -5°C° 0 mm 3 mps 617 mmHg 85%

    23 December, Saturday

    Time Temperature Precipitation Wind Pressure Humidity
    00:00 -5°C° 0 mm 3 mps 617 mmHg 85%
    01:00 -6°C° 0 mm 3 mps 617 mmHg 84%
    02:00 -6°C° 0 mm 3 mps 616 mmHg 84%
    03:00 -6°C° 0 mm 3 mps 616 mmHg 84%
    04:00 -6°C° 0 mm 3 mps 616 mmHg 83%
    05:00 -6°C° 0 mm 3 mps 616 mmHg 82%
    06:00 -6°C° 0 mm 3 mps 616 mmHg 81%
    07:00 -5°C° 0 mm 3 mps 616 mmHg 78%
    08:00 -4°C° 0 mm 3 mps 617 mmHg 74%
    09:00 -4°C° 0 mm 3 mps 617 mmHg 71%
    10:00 -1°C° 0 mm 3 mps 617 mmHg 68%
    11:00 0°C° 0 mm 3 mps 618 mmHg 65%
    12:00 +2°C° 0 mm 3 mps 618 mmHg 62%
    13:00 +1°C° 0 mm 3 mps 618 mmHg 64%
    14:00 +1°C° 0 mm 3 mps 617 mmHg 66%
    15:00 +1°C° 0 mm 3 mps 617 mmHg 68%
    16:00 -1°C° 0 mm 2 mps 616 mmHg 70%
    17:00 -3°C° 0 mm 2 mps 616 mmHg 72%
    18:00 -5°C° 0 mm 2 mps 615 mmHg 74%
    19:00 -5°C° 0 mm 2 mps 615 mmHg 71%
    20:00 -5°C° 0 mm 2 mps 615 mmHg 67%
    21:00 -5°C° 0 mm 2 mps 615 mmHg 64%
    22:00 -5°C° 0 mm 2 mps 615 mmHg 62%
    23:00 -5°C° 0 mm 2 mps 615 mmHg 59%
    Show more